TimeEDT,TemperatureF,Dew PointF,Humidity,Sea Level PressureIn,VisibilityMPH,Wind Direction,Wind SpeedMPH,Gust SpeedMPH,PrecipitationIn,Events,Conditions,WindDirDegrees,DateUTC
12:16 AM,53.6,51.8,94,29.64,6.0,West,9.2,-,0.02,Rain,Light Rain,260,2012-10-01 04:16:00
12:34 AM,53.6,51.8,94,29.63,6.0,WSW,8.1,-,0.05,Rain,Light Rain,250,2012-10-01 04:34:00
12:53 AM,52.0,51.1,97,29.63,6.0,WSW,9.2,-,0.08,Rain,Rain,250,2012-10-01 04:53:00
1:33 AM,51.8,51.8,100,29.61,5.0,WSW,10.4,-,0.05,Rain,Rain,250,2012-10-01 05:33:00
1:53 AM,52.0,51.1,97,29.61,4.0,WSW,10.4,-,0.07,Rain,Rain,250,2012-10-01 05:53:00
2:36 AM,51.8,51.8,100,29.59,5.0,West,11.5,-,0.07,Rain,Rain,260,2012-10-01 06:36:00
2:51 AM,51.8,51.8,100,29.58,5.0,WSW,10.4,-,0.09,Rain,Rain,250,2012-10-01 06:51:00
2:53 AM,52.0,51.1,97,29.59,5.0,WSW,12.7,-,0.09,Rain,Rain,250,2012-10-01 06:53:00
3:38 AM,53.6,51.8,94,29.57,4.0,West,11.5,17.3,0.07,Rain,Rain,260,2012-10-01 07:38:00
3:53 AM,53.1,51.1,93,29.58,4.0,West,12.7,-,0.09,Rain,Light Rain,260,2012-10-01 07:53:00
4:24 AM,53.6,51.8,94,29.58,4.0,West,12.7,17.3,0.04,Rain,Light Rain,260,2012-10-01 08:24:00
4:53 AM,53.1,51.1,93,29.59,2.5,West,12.7,-,0.07,Rain,Light Rain,260,2012-10-01 08:53:00
5:00 AM,53.6,51.8,94,29.58,4.0,West,12.7,-,0.01,Rain,Light Rain,260,2012-10-01 09:00:00
5:39 AM,53.6,51.8,94,29.59,5.0,West,15.0,20.7,0.04,Rain,Light Rain,270,2012-10-01 09:39:00
5:53 AM,53.1,52.0,96,29.60,4.0,West,11.5,-,0.05,Rain,Light Rain,270,2012-10-01 09:53:00
6:53 AM,53.1,52.0,96,29.61,5.0,West,11.5,-,0.02,Rain,Light Rain,280,2012-10-01 10:53:00
7:53 AM,53.6,51.8,94,29.63,10.0,West,10.4,-,N/A,Rain,Light Rain,270,2012-10-01 11:53:00
8:07 AM,53.6,51.8,94,29.64,7.0,West,13.8,21.9,0.00,Rain,Light Rain,260,2012-10-01 12:07:00
8:14 AM,53.6,51.8,94,29.64,8.0,West,9.2,21.9,0.00,Rain,Light Rain,270,2012-10-01 12:14:00
8:21 AM,53.6,51.8,94,29.64,10.0,West,16.1,20.7,0.00,,Overcast,260,2012-10-01 12:21:00
8:33 AM,53.6,51.8,94,29.65,10.0,West,12.7,18.4,0.00,,Overcast,260,2012-10-01 12:33:00
8:53 AM,54.0,52.0,93,29.66,10.0,West,12.7,18.4,0.00,,Overcast,260,2012-10-01 12:53:00
9:53 AM,55.0,52.0,89,29.69,10.0,West,12.7,-,N/A,,Overcast,260,2012-10-01 13:53:00
10:08 AM,55.4,51.8,88,29.68,10.0,West,12.7,-,N/A,,Overcast,270,2012-10-01 14:08:00
10:53 AM,55.9,52.0,87,29.71,10.0,West,12.7,-,N/A,,Overcast,270,2012-10-01 14:53:00
11:53 AM,57.0,51.1,81,29.73,10.0,West,9.2,-,N/A,,Overcast,270,2012-10-01 15:53:00
12:53 PM,59.0,51.1,75,29.74,10.0,West,8.1,-,N/A,,Overcast,280,2012-10-01 16:53:00
1:25 PM,60.8,51.8,72,29.75,10.0,West,6.9,-,N/A,,Overcast,270,2012-10-01 17:25:00
1:53 PM,60.1,51.1,72,29.76,10.0,West,8.1,-,N/A,,Overcast,260,2012-10-01 17:53:00
2:53 PM,60.1,53.1,78,29.78,10.0,Calm,Calm,-,N/A,,Overcast,0,2012-10-01 18:53:00
3:53 PM,61.0,53.1,75,29.78,10.0,SSW,3.5,-,N/A,,Overcast,200,2012-10-01 19:53:00
4:53 PM,61.0,55.0,81,29.79,10.0,Calm,Calm,-,N/A,,Overcast,0,2012-10-01 20:53:00
5:53 PM,61.0,55.9,83,29.81,10.0,Calm,Calm,-,N/A,,Overcast,0,2012-10-01 21:53:00
6:53 PM,59.0,57.0,93,29.83,10.0,Calm,Calm,-,N/A,,Overcast,0,2012-10-01 22:53:00
7:53 PM,55.9,55.0,97,29.85,10.0,SSW,3.5,-,N/A,,Mostly Cloudy,210,2012-10-01 23:53:00
8:53 PM,55.9,53.1,90,29.87,10.0,SW,8.1,-,N/A,,Clear,220,2012-10-02 00:53:00
9:53 PM,55.9,54.0,93,29.88,10.0,SSW,6.9,-,N/A,,Clear,210,2012-10-02 01:53:00
10:53 PM,55.4,53.6,94,29.88,10.0,SSW,8.1,-,N/A,,Clear,210,2012-10-02 02:53:00
11:53 PM,55.0,54.0,96,29.90,10.0,SSW,6.9,-,N/A,,Clear,210,2012-10-02 03:53:00